sat.trackr.live / text

‹ back to catalog

STARLINK-5760

NORAD 55591 · 2023-020Y

PAYLOAD ACTIVE UNKNOWN

§ Identity

Operator
Country
US
Launch date
2023-02-12
Launch site
AFETR
Launch vehicle
Mass (kg)
RCS (m²)

Purposes: comms

External: N2YO · Heavens-Above · Gunter

§ Orbital elements

Epoch: 2026-05-24T21:05:47.480928Z

Period
94.27 min
Inclination
43.0050°
Eccentricity
0.0001570
Mean motion
15.27577391 rev/d
Perigee alt
482.0 km
Apogee alt
484.1 km
Semi-major
6,861.2 km
B*
1.0202e-4
RAAN
295.0408°
Arg perigee
280.3878°
Mean anomaly
79.6797°
Rev number
18,056

§ Raw data

STARLINK-57601 55591U 23020Y   26144.87902177  .00002546  00000+0  10202-3 0  99942 55591  43.0050 295.0408 0001570 280.3878  79.6797 15.27577391180568

JSON: /api/v1/satellites/55591 · /tle

For live sub-satellite position, see the globe view (requires WebGL).

§ Visibility from observer

Set your observer location to see the next 7 days of passes ≥ 10°. The values pass through the URL so the page stays shareable.

No JS? Fill the form by hand. The geolocation button needs JavaScript.